Location: Oriwa
(40.7500°S, 175.3333°E)
Time: 14:09:18
(UTC+00:00)

YAOGAN 6 - Pass Details

Date: 03 February 2023
Orbit: 448 x 480 km, 97.1° (Epoch: 31 March)

Event Time Altitude Azimuth Distance (km) Brightness Sun altitude
Exits shadow 15:48:27 37° 345° (NNW) 723 3.0 -17.0°
Maximum altitude 15:49:34 62° 281° (W) 523 2.4 -16.8°
Drops below altitude 10° 15:53:02 10° 198° (SSW) 1,625 5.5 -16.3°
Sets 15:55:08 0° 195° (SSW) 2,515 6.5 -16.0°
